[[{"header":{"parameterUnit":"m.s-1","parameterCategory":1,"la1":30.2991,"la2":30.254,"lo1":-89.0895,"lo2":-89.0444,"dy":0.0017,"dx":0.0017,"nx":28,"ny":28,"refTime":"2025-04-18T03:00:00:Z","depth":0,"parameterNumber":2,"parameterNumberName":"U-component_of_WINDS"},"data":[0,0,0,0,0,0,0,0,0,0,0,0,0,0,0,0,0,0,0,0,0,0,0,0,0,0,0,0,0,0,0,0,0,0,0,0,0,0,0,0,0,0,0,0,0,0,0,0,0,0,0,0,0,0,0,0,0,0,-3.31,-3.3101,0,-3.317,-3.3171,-3.3171,-3.318,-3.3179,-3.3178,-3.3178,-3.3246,-3.3248,-3.3251,0,0,0,0,0,0,0,0,0,0,0,0,0,-3.2973,-3.2975,-3.31,-3.3101,-3.3102,-3.317,-3.3171,-3.3172,-3.318,-3.3179,-3.3178,-3.3178,-3.3245,-3.3248,-3.3251,0,0,0,0,0,0,0,0,0,0,0,0,0,-3.3034,-3.2976,-3.31,-3.3114,-3.3116,-3.3169,-3.3171,-3.3172,-3.318,-3.3179,-3.3178,-3.3177,-3.3244,-3.3248,-3.3251,-3.3294,0,0,-3.3263,-3.3264,0,0,0,0,0,0,0,0,-3.303,-3.3039,-3.3111,-3.3113,-3.3116,-3.3165,-3.3151,-3.3213,-3.318,-3.3156,-3.3178,-3.3177,-3.322,-3.3225,-3.3241,-3.3297,-3.33,-3.3263,-3.3265,-3.3267,-3.3268,0,0,0,0,0,0,0,-3.3026,-3.3036,-3.3128,-3.3112,-3.3115,-3.3117,-3.3124,-3.3163,-3.3192,-3.3158,-3.3159,-3.3167,-3.3221,-3.3237,-3.3242,-3.3301,-3.3263,-3.3266,-3.3268,-3.327,-3.3398,-3.3399,0,0,0,0,0,0,-3.302,-3.3032,-3.3125,-3.313,-3.307,-3.312,-3.3128,-3.315,-3.3192,-3.3198,-3.3168,-3.3167,-3.3231,-3.3238,-3.3245,-3.3298,-3.3267,-3.327,-3.3272,-3.3397,-3.3398,-3.3399,0,0,0,0,0,0,-3.3017,-3.3028,-3.3123,-3.3081,-3.3093,-3.3123,-3.3148,-3.3152,-3.3168,-3.32,-3.3205,-3.3179,-3.3231,-3.3239,-3.3282,-3.33,-3.3272,-3.3275,-3.3395,-3.3397,-3.3399,-3.3404,0,0,0,0,0,0,-3.3013,-3.3027,-3.3044,-3.3082,-3.3096,-3.3159,-3.3149,-3.3154,-3.3175,-3.3175,-3.3211,-3.3216,-3.3231,-3.3277,-3.3286,-3.3305,-3.3278,-3.3394,-3.3396,-3.3398,-3.3402,-3.3405,-3.3408,0,0,0,0,0,-3.3009,-3.3041,-3.3044,-3.3056,-3.3117,-3.316,-3.3168,-3.3185,-3.3176,-3.3193,-3.3214,-3.3215,-3.3297,-3.3281,-3.3291,-3.3311,-3.3393,-3.3395,-3.3398,-3.34,-3.3405,-3.3408,0,0,0,0,0,0,-3.3003,-3.3046,-3.305,-3.3096,-3.3125,-3.3162,-3.3183,-3.3189,-3.3219,-3.3217,-3.3236,-3.3244,-3.3286,-3.3303,-3.3285,-3.3356,-3.3344,-3.3349,-3.3342,-3.3347,-3.335,-3.3344,-3.3281,0,0,0,0,0,-3.3008,-3.304,-3.3076,-3.3113,-3.3127,-3.3153,-3.3172,-3.3183,-3.3213,-3.3224,-3.3248,-3.3276,-3.3308,-3.3328,-3.336,-3.3405,-3.3413,-3.3424,-3.3428,-3.343,-3.3433,-3.3459,-3.3464,-3.3408,-3.3408,-3.3408,0,0,-3.3016,-3.3044,-3.3063,-3.3113,-3.3136,-3.3168,-3.3163,-3.3197,-3.3221,-3.3229,-3.3271,-3.329,-3.3322,-3.3367,-3.3388,-3.3382,-3.3451,-3.3433,-3.3435,-3.3437,-3.3462,-3.3468,-3.3472,-3.341,-3.341,-3.3409,0,0,-3.3049,-3.3073,-3.3107,-3.3131,-3.3167,-3.3185,-3.3193,-3.323,-3.3243,-3.3286,-3.3293,-3.3321,-3.3376,-3.34,-3.3418,-3.3462,-3.3465,-3.3472,-3.3488,-3.3513,-3.3517,-3.3521,-3.3536,-3.3541,-3.3476,-3.3476,-3.3476,0,-3.3055,-3.3105,-3.3124,-3.3158,-3.318,-3.3191,-3.3225,-3.3247,-3.3291,-3.3305,-3.33,-3.337,-3.3393,-3.3443,-3.3454,-3.3469,-3.3479,-3.3467,-3.3515,-3.3519,-3.3523,-3.3538,-3.3544,-3.3477,-3.3476,-3.3476,-3.3476,0,-3.311,-3.3145,-3.3168,-3.3211,-3.3236,-3.327,-3.3294,-3.3316,-3.3326,-3.3343,-3.3387,-3.3416,-3.3453,-3.3466,-3.3475,-3.3518,-3.3514,-3.3512,-3.35,-3.3529,-3.3543,-3.3549,-3.3477,-3.3477,-3.3477,-3.3477,0,0,-3.3139,-3.3194,-3.3202,-3.3222,-3.3264,-3.3291,-3.3326,-3.3364,-3.3383,-3.3413,-3.3443,-3.349,-3.3489,-3.351,-3.3522,-3.3544,-3.3577,-3.3539,-3.354,-3.3544,-3.3626,-3.3626,-3.3633,-3.358,-3.3581,-3.3582,-3.3623,0,-3.3175,-3.3238,-3.3258,-3.3311,-3.3343,-3.3355,-3.3385,-3.3414,-3.3432,-3.3462,-3.3482,-3.3515,-3.3511,-3.3524,-3.3547,-3.3568,-3.3593,-3.3566,-3.3606,-3.3608,-3.3596,-3.364,-3.364,-3.3678,-3.3629,-3.363,-3.363,0,-3.3226,-3.3259,-3.3315,-3.3354,-3.3368,-3.3395,-3.3432,-3.346,-3.3493,-3.3505,-3.3531,-3.3541,-3.3578,-3.3566,-3.3617,-3.3598,-3.3616,-3.3629,-3.3631,-3.3634,-3.3619,-3.3643,-3.369,-3.3695,-3.3639,-3.3639,-3.3638,0,-3.324,-3.3298,-3.334,-3.3357,-3.3403,-3.3422,-3.3442,-3.3474,-3.3496,-3.3529,-3.3543,-3.3579,-3.3598,-3.3626,-3.3645,-3.3635,-3.3695,-3.3684,-3.3705,-3.3704,-3.3715,-3.3714,-3.3764,-3.3729,-3.3729,-3.3729,-3.3729,0,-3.3278,-3.3312,-3.3347,-3.3372,-3.3411,-3.3433,-3.347,-3.3491,-3.352,-3.3549,-3.3562,-3.3589,-3.3614,-3.3645,-3.366,-3.37,-3.3709,-3.3719,-3.3722,-3.3717,-3.3716,-3.3728,-3.3725,-3.373,-3.373,-3.373,-3.3729,0,-3.3299,-3.3325,-3.3371,-3.3411,-3.3423,-3.3449,-3.3484,-3.3509,-3.3529,-3.3565,-3.3575,-3.3606,-3.3643,-3.3666,-3.3712,-3.3723,-3.3766,-3.3769,-3.3755,-3.3756,-3.3775,-3.3773,-3.3834,-3.3843,-3.3803,-3.3803,-3.3804,0,-3.3321,-3.3348,-3.3392,-3.3413,-3.3434,-3.3467,-3.3491,-3.3514,-3.3537,-3.3578,-3.3598,-3.3636,-3.3667,-3.3725,-3.3751,-3.3787,-3.379,-3.381,-3.3796,-3.379,-3.379,-3.3787,-3.379,-3.3811,-3.3811,-3.3812,-3.3812,0,-3.3357,-3.3369,-3.3402,-3.344,-3.3468,-3.3498,-3.3529,-3.3545,-3.3574,-3.36,-3.3638,-3.3663,-3.3711,-3.3748,-3.3787,-3.3807,-3.3814,-3.3817,-3.3823,-3.3817,-3.3807,-3.3812,-3.376,-3.3814,-3.3814,-3.3814,-3.3814,-3.3814,-3.3379,-3.3403,-3.3439,-3.3476,-3.3502,-3.353,-3.3556,-3.358,-3.3613,-3.3654,-3.3666,-3.3706,-3.374,-3.3792,-3.3813,-3.3845,-3.3842,-3.3851,-3.3854,-3.3855,-3.3855,-3.3804,-3.3852,-3.3852,-3.3852,-3.3852,-3.3852,0,-3.3415,-3.3439,-3.3473,-3.3516,-3.3545,-3.3551,-3.3586,-3.361,-3.3645,-3.3676,-3.3707,-3.3752,-3.3788,-3.3818,-3.3856,-3.3875,-3.388,-3.3884,-3.3882,-3.3887,-3.3856,-3.3846,-3.388,-3.388,-3.388,-3.388,-3.388,-3.388,-3.3437,-3.3479,-3.3495,-3.355,-3.3573,-3.3613,-3.3633,-3.3659,-3.3684,-3.3734,-3.3765,-3.3784,-3.3815,-3.3855,-3.3889,-3.3897,-3.391,-3.3914,-3.3922,-3.3892,-3.3889,-3.3886,-3.3877,-3.3917,-3.3917,-3.3951,-3.3951,-3.3951]},{"header":{"parameterUnit":"m.s-1","parameterCategory":1,"la1":30.2991,"la2":30.254,"lo1":-89.0895,"lo2":-89.0444,"dy":0.0017,"dx":0.0017,"nx":28,"ny":28,"refTime":"2025-04-18T03:00:00:Z","depth":0,"parameterNumber":3,"parameterNumberName":"V-component_of_WINDS"},"data":[0,0,0,0,0,0,0,0,0,0,0,0,0,0,0,0,0,0,0,0,0,0,0,0,0,0,0,0,0,0,0,0,0,0,0,0,0,0,0,0,0,0,0,0,0,0,0,0,0,0,0,0,0,0,0,0,0,0,5.8823,5.8824,0,5.8894,5.8895,5.8895,5.8899,5.8899,5.8898,5.8897,5.8966,5.8968,5.8971,0,0,0,0,0,0,0,0,0,0,0,0,0,5.8689,5.8691,5.8823,5.8824,5.8825,5.8894,5.8895,5.8896,5.89,5.8899,5.8898,5.8897,5.8965,5.8968,5.8971,0,0,0,0,0,0,0,0,0,0,0,0,0,5.8752,5.8692,5.8823,5.8835,5.8837,5.8893,5.8895,5.8896,5.89,5.8899,5.8897,5.8896,5.8964,5.8968,5.8971,5.9019,0,0,5.8983,5.8985,0,0,0,0,0,0,0,0,5.8748,5.8757,5.8832,5.8834,5.8836,5.8887,5.8873,5.8937,5.89,5.8876,5.8897,5.8896,5.894,5.8946,5.8962,5.9022,5.9025,5.8984,5.8986,5.8988,5.8989,0,0,0,0,0,0,0,5.8744,5.8754,5.8851,5.8833,5.8836,5.8836,5.8844,5.8885,5.8914,5.8878,5.8878,5.8887,5.8941,5.8958,5.8963,5.9026,5.8983,5.8987,5.8989,5.8991,5.9133,5.9134,0,0,0,0,0,0,5.8738,5.875,5.8849,5.8853,5.8789,5.884,5.8848,5.8872,5.8913,5.8918,5.8888,5.8887,5.8952,5.8959,5.8966,5.9026,5.8987,5.8991,5.8993,5.9131,5.9133,5.9135,0,0,0,0,0,0,5.8735,5.8746,5.8846,5.8802,5.8815,5.8843,5.8869,5.8874,5.8891,5.8921,5.8926,5.89,5.8951,5.896,5.9007,5.9029,5.8993,5.8996,5.9129,5.9132,5.9134,5.9147,0,0,0,0,0,0,5.8731,5.8745,5.8764,5.8802,5.8817,5.8886,5.8871,5.8876,5.8898,5.8897,5.8934,5.8938,5.8951,5.9001,5.9011,5.9033,5.8999,5.9128,5.913,5.9133,5.9144,5.9149,5.9153,0,0,0,0,0,5.8726,5.8764,5.8765,5.8777,5.8841,5.8887,5.8896,5.891,5.8899,5.8919,5.8938,5.8937,5.9025,5.9006,5.9017,5.9041,5.9126,5.913,5.9133,5.9142,5.9148,5.9153,0,0,0,0,0,0,5.8725,5.8769,5.8771,5.8822,5.8851,5.8888,5.8912,5.8916,5.8947,5.8945,5.8961,5.8969,5.9016,5.9033,5.9011,5.909,5.9074,5.908,5.9078,5.9083,5.9088,5.9083,5.9003,0,0,0,0,0,5.8732,5.8767,5.8802,5.8844,5.8858,5.8883,5.8904,5.8913,5.8943,5.8955,5.8978,5.9007,5.9041,5.9063,5.9096,5.9147,5.9156,5.9169,5.9173,5.9177,5.9181,5.9211,5.9218,5.9145,5.9145,5.9145,0,0,5.8744,5.8772,5.8793,5.8844,5.8868,5.8904,5.8893,5.8931,5.8957,5.896,5.9007,5.9025,5.9058,5.9107,5.913,5.9123,5.9204,5.9181,5.9183,5.9186,5.9215,5.9222,5.9229,5.9147,5.9147,5.9147,0,0,5.8785,5.8809,5.8848,5.8873,5.8909,5.8926,5.8935,5.8972,5.8985,5.9032,5.9036,5.9067,5.9125,5.9149,5.9169,5.9222,5.9223,5.9232,5.9254,5.9284,5.9289,5.9295,5.9315,5.9322,5.9237,5.9237,5.9237,0,5.8795,5.885,5.8867,5.8905,5.8928,5.8935,5.8974,5.8997,5.9042,5.9057,5.9049,5.9124,5.9146,5.9203,5.9216,5.9231,5.9243,5.9228,5.9287,5.9293,5.9298,5.9317,5.9325,5.9238,5.9238,5.9237,5.9237,0,5.8862,5.89,5.8926,5.8972,5.8998,5.9036,5.9059,5.9083,5.909,5.9108,5.9156,5.9184,5.9224,5.9238,5.9244,5.9295,5.929,5.9284,5.9268,5.9306,5.9324,5.9332,5.9239,5.9239,5.9238,5.9238,0,0,5.8903,5.896,5.8969,5.8991,5.9033,5.9063,5.9102,5.9142,5.9163,5.9195,5.9228,5.9278,5.9274,5.9297,5.9306,5.9332,5.9374,5.9323,5.9324,5.9333,5.9434,5.9439,5.9447,5.9375,5.9376,5.9377,5.9432,0,5.895,5.9021,5.9039,5.9099,5.9135,5.9143,5.9177,5.9207,5.9225,5.9257,5.9276,5.9312,5.9303,5.9317,5.9343,5.9363,5.9395,5.936,5.9406,5.9408,5.9399,5.9457,5.9461,5.9511,5.9439,5.944,5.9441,0,5.9014,5.9049,5.9114,5.9154,5.917,5.92,5.924,5.9271,5.9305,5.9316,5.9343,5.935,5.9391,5.9373,5.9431,5.9407,5.9427,5.944,5.9442,5.9448,5.9427,5.9464,5.9527,5.9535,5.9452,5.9451,5.9451,0,5.904,5.9103,5.9151,5.9169,5.9216,5.9238,5.9258,5.9291,5.9315,5.9349,5.9365,5.9403,5.9424,5.9453,5.9471,5.9456,5.9527,5.951,5.9538,5.9537,5.9553,5.9551,5.9621,5.9564,5.9564,5.9564,5.9564,0,5.9091,5.913,5.9163,5.9193,5.9238,5.9257,5.9301,5.9321,5.9351,5.9384,5.9392,5.9423,5.9445,5.9479,5.9492,5.9539,5.9548,5.9558,5.9561,5.9558,5.9557,5.9571,5.9569,5.9566,5.9565,5.9565,5.9565,0,5.9127,5.9151,5.9203,5.9245,5.9256,5.9287,5.9322,5.9351,5.937,5.9412,5.9423,5.9452,5.9492,5.9513,5.9563,5.9572,5.9625,5.9626,5.9614,5.9616,5.9643,5.964,5.9724,5.9737,5.9671,5.9672,5.9672,0,5.9158,5.919,5.9235,5.9259,5.928,5.9318,5.9343,5.9364,5.9389,5.9432,5.9456,5.9497,5.9532,5.9596,5.9621,5.966,5.9662,5.9689,5.9668,5.9664,5.9664,5.9662,5.9666,5.9693,5.9693,5.9694,5.9694,0,5.9212,5.9223,5.926,5.9302,5.9332,5.9365,5.9398,5.9417,5.9442,5.9471,5.9514,5.954,5.9593,5.9634,5.9675,5.9696,5.97,5.9701,5.971,5.9707,5.9699,5.9705,5.9625,5.9699,5.9698,5.9698,5.9698,5.9698,5.9248,5.9277,5.9315,5.9356,5.9383,5.9414,5.9444,5.9467,5.9503,5.9549,5.9558,5.9604,5.9638,5.9694,5.9716,5.9751,5.9746,5.9758,5.9761,5.9764,5.9766,5.9693,5.9759,5.9759,5.9759,5.9758,5.9758,0,5.9304,5.9329,5.9367,5.9413,5.9446,5.9448,5.9485,5.9512,5.9553,5.9585,5.9619,5.9669,5.971,5.9739,5.978,5.9803,5.9806,5.9814,5.9812,5.9817,5.9768,5.9757,5.9811,5.9811,5.9811,5.9811,5.9811,5.9811,5.9337,5.9387,5.9402,5.9466,5.949,5.9536,5.9557,5.9586,5.9612,5.9668,5.9703,5.9722,5.9753,5.9797,5.9835,5.9842,5.9857,5.9865,5.9872,5.9826,5.9821,5.9815,5.9805,5.9868,5.9868,5.9919,5.9919,5.992]}]]